Wetterdaten: aktuell Dienstag, 16.10.2018 08:50
Datum Zeit Temp. I. Temp. A. Bodent.-20cm Feuchte I. Feuchte A. BlattFeuchte BodenFeuchte Luftdruck Regen Wind Richtung Richtung Sonnenschein T Regen ET UV Solar Taupunkt Windchill Windben Empfang
16.10.2018 08:50 22,4 C 9,1 C 12,8 C 54 % 77 % 0 lf 32 cb 1019,4 hPa 0,0 mm 1,5 km/h (1 Bft) N-NO 20 0 min 0 min 0,025 mm 0,4 UV-I 88 W/m 5,3 C 9,1 C 3,2 km/h (1 Bft) 100,00 %
16.10.2018 07:50 22,4 C 9,0 C 12,8 C 54 % 76 % 0 lf 32 cb 1018,7 hPa 0,0 mm 3,5 km/h (1 Bft) N-NO 28 0 min 0 min 0,026 mm 0,0 UV-I 19 W/m 5,0 C 9,0 C 4,8 km/h (1 Bft) 97,46 %
16.10.2018 06:50 22,4 C 9,1 C 12,8 C 54 % 76 % 0 lf 32 cb 1018,2 hPa 0,0 mm 3,7 km/h (1 Bft) NO 38 0 min 0 min 0,025 mm 0,0 UV-I 0 W/m 5,1 C 9,1 C 4,8 km/h (1 Bft) 98,29 %
16.10.2018 05:50 22,4 C 9,4 C 12,8 C 54 % 75 % 0 lf 32 cb 1018,0 hPa 0,0 mm 2,9 km/h (1 Bft) NO 39 0 min 0 min 0,025 mm 0,0 UV-I 0 W/m 5,2 C 9,4 C 4,8 km/h (1 Bft) 100,00 %
16.10.2018 04:50 22,4 C 10,3 C 12,8 C 54 % 70 % 0 lf 32 cb 1017,8 hPa 0,0 mm 2,9 km/h (1 Bft) N-NO 29 0 min 0 min 0,001 mm 0,0 UV-I 0 W/m 5,1 C 10,3 C 4,8 km/h (1 Bft) 100,00 %
16.10.2018 03:50 22,3 C 10,8 C 12,8 C 54 % 68 % 0 lf 32 cb 1017,6 hPa 0,0 mm 2,5 km/h (1 Bft) N-NO 24 0 min 0 min 0,025 mm 0,0 UV-I 0 W/m 5,1 C 10,8 C 3,2 km/h (1 Bft) 97,46 %
16.10.2018 02:50 22,2 C 11,2 C 12,8 C 54 % 67 % 0 lf 32 cb 1017,7 hPa 0,0 mm 0,0 km/h (0 Bft) S-SW 200 0 min 0 min 0,001 mm 0,0 UV-I 0 W/m 5,3 C 11,2 C 0,0 km/h (0 Bft) 97,46 %
16.10.2018 01:50 22,3 C 10,9 C 12,8 C 54 % 69 % 0 lf 32 cb 1018,0 hPa 0,0 mm 0,0 km/h (0 Bft) S-SW 200 0 min 0 min 0,025 mm 0,0 UV-I 0 W/m 5,4 C 10,9 C 0,0 km/h (0 Bft) 99,15 %
16.10.2018 00:50 22,2 C 11,2 C 12,8 C 54 % 70 % 0 lf 32 cb 1018,0 hPa 0,0 mm 0,0 km/h (0 Bft) S-SW 200 0 min 0 min 0,000 mm 0,0 UV-I 0 W/m 5,9 C 11,2 C 0,0 km/h (0 Bft) 100,00 %
15.10.2018 23:50 22,2 C 11,4 C 12,8 C 54 % 70 % 0 lf 32 cb 1018,1 hPa 0,0 mm 0,1 km/h (0 Bft) W-SW 246 0 min 0 min 0,025 mm 0,0 UV-I 0 W/m 6,1 C 11,4 C 1,6 km/h (1 Bft) 100,00 %
15.10.2018 22:50 22,1 C 12,1 C 12,8 C 54 % 67 % 0 lf 32 cb 1018,3 hPa 0,0 mm 1,9 km/h (1 Bft) W 259 0 min 0 min 0,001 mm 0,0 UV-I 0 W/m 6,2 C 12,1 C 4,8 km/h (1 Bft) 98,31 %
15.10.2018 21:50 22,0 C 12,6 C 12,8 C 54 % 65 % 0 lf 32 cb 1018,4 hPa 0,0 mm 1,9 km/h (1 Bft) W-NW 294 0 min 0 min 0,025 mm 0,0 UV-I 0 W/m 6,2 C 12,6 C 3,2 km/h (1 Bft) 100,00 %
15.10.2018 20:50 22,1 C 12,8 C 12,8 C 54 % 64 % 0 lf 32 cb 1018,3 hPa 0,0 mm 0,5 km/h (0 Bft) SW 230 0 min 0 min 0,025 mm 0,0 UV-I 0 W/m 6,2 C 12,8 C 3,2 km/h (1 Bft) 100,00 %
15.10.2018 19:50 21,7 C 13,4 C 12,8 C 55 % 62 % 0 lf 32 cb 1018,4 hPa 0,0 mm 2,1 km/h (1 Bft) NW 308 0 min 0 min 0,026 mm 0,0 UV-I 0 W/m 6,3 C 13,4 C 3,2 km/h (1 Bft) 100,00 %
15.10.2018 18:50 21,8 C 14,3 C 12,8 C 55 % 59 % 0 lf 32 cb 1018,8 hPa 0,0 mm 2,3 km/h (1 Bft) NW 317 0 min 0 min 0,051 mm 0,0 UV-I 0 W/m 6,4 C 14,3 C 6,4 km/h (2 Bft) 100,00 %
15.10.2018 17:50 21,9 C 15,3 C 12,8 C 54 % 55 % 0 lf 31 cb 1018,2 hPa 0,0 mm 3,8 km/h (1 Bft) O 97 15 min 0 min 0,076 mm 0,0 UV-I 22 W/m 6,3 C 15,3 C 12,9 km/h (3 Bft) 96,58 %
15.10.2018 16:50 21,9 C 15,9 C 12,8 C 54 % 52 % 0 lf 31 cb 1018,4 hPa 0,0 mm 3,4 km/h (1 Bft) W-NW 289 0 min 0 min 0,127 mm 0,0 UV-I 77 W/m 6,1 C 15,9 C 8,0 km/h (2 Bft) 97,44 %
15.10.2018 15:50 21,8 C 16,9 C 12,8 C 54 % 48 % 0 lf 31 cb 1018,3 hPa 0,0 mm 3,5 km/h (1 Bft) NO 34 0 min 0 min 0,203 mm 0,7 UV-I 124 W/m 5,8 C 16,9 C 8,0 km/h (2 Bft) 100,00 %
15.10.2018 14:50 21,9 C 17,4 C 12,8 C 54 % 46 % 0 lf 31 cb 1018,3 hPa 0,0 mm 5,9 km/h (2 Bft) O 84 20 min 0 min 0,203 mm 1,3 UV-I 233 W/m 5,7 C 17,4 C 19,3 km/h (3 Bft) 99,15 %
15.10.2018 13:50 22,0 C 17,6 C 12,8 C 54 % 46 % 0 lf 32 cb 1018,6 hPa 0,0 mm 5,2 km/h (1 Bft) O-NO 64 25 min 0 min 0,280 mm 1,5 UV-I 217 W/m 5,8 C 17,6 C 11,3 km/h (2 Bft) 99,15 %
15.10.2018 12:50 22,0 C 18,3 C 12,8 C 54 % 41 % 0 lf 32 cb 1018,9 hPa 0,0 mm 8,7 km/h (2 Bft) O-NO 69 55 min 0 min 0,279 mm 2,6 UV-I 457 W/m 4,8 C 17,3 C 22,5 km/h (4 Bft) 100,00 %
15.10.2018 11:50 22,2 C 17,1 C 12,8 C 54 % 44 % 0 lf 32 cb 1019,3 hPa 0,0 mm 4,8 km/h (1 Bft) NO 39 60 min 0 min 0,152 mm 2,3 UV-I 409 W/m 4,8 C 17,1 C 14,5 km/h (3 Bft) 100,00 %
15.10.2018 10:50 22,3 C 13,6 C 12,8 C 54 % 58 % 0 lf 32 cb 1019,5 hPa 0,0 mm 3,6 km/h (1 Bft) NW 318 30 min 0 min 0,102 mm 1,8 UV-I 390 W/m 5,5 C 13,6 C 6,4 km/h (2 Bft) 100,00 %
15.10.2018 09:50 22,3 C 12,0 C 12,8 C 54 % 60 % 0 lf 32 cb 1019,6 hPa 0,0 mm 1,2 km/h (1 Bft) N-NW 334 30 min 0 min 0,051 mm 1,0 UV-I 222 W/m 4,5 C 12,0 C 3,2 km/h (1 Bft) 99,07 %
15.10.2018 09:00 22,1 C 10,5 C 12,8 C 54 % 66 % 0 lf 32 cb 1019,5 hPa 0,0 mm 1,5 km/h (1 Bft) N-NW 336 0 min 0 min 0,051 mm 0,6 UV-I 184 W/m 4,4 C 10,5 C 3,2 km/h (1 Bft) 100,00 %
_ Min-Zeit 19:00 07:10 09:00 09:00 12:10 09:00 14:00 03:40 - 10:10 - - - - - - - 11:25 07:10 10:10 03:05
Minimum _ 21,7 C 8,9 C 12,8 C 54 % 40 % 0 lf 31 cb 1017,6 hPa - 0,0 km/h (0 Bft) - - - - - - - 4,0 C 8,9 C 0,0 km/h (0 Bft) 95,73 %
_ Max-Zeit 03:20 12:40 09:00 15:40 07:00 09:00 09:00 10:05 09:00 14:40 - - 09:00 09:00 13:00 12:10 12:55 18:55 12:40 12:55 09:00
Maximum _ 22,4 C 18,3 C 12,8 C 55 % 77 % 0 lf 32 cb 1019,7 hPa 0,0 mm 10,8 km/h
S-SO (2 Bft)
- - 5 min 0 min 0,280 mm 2,6 UV-I 474 W/m 6,5 C 18,3 C 24,1 km/h
O-SO (4 Bft)
100,00 %
Durchschnitt _ 22,1 C 12,8 C 12,8 C 54 % 62 % 0 lf 32 cb 1018,5 hPa #0,0 mm 2,9 km/h (1 Bft) NO - #0 min. #0 min. #0,203 mm 0,4 UV-I 28 W/m 5,5 C 12,8 C 6,6 km/h (2 Bft) 99,23 %